Location: Clarks Summit,Pa.
(41.5000°N, 75.6000°W)
Time: 21:21:17
(UTC-04:00)

Tiangong 2 - Visible Passes

Search period start: 20 May 2018 00:00
Search period end: 30 May 2018 00:00
Orbit: 382 x 386 km, 42.8° (Epoch: 20 May)

Date Brightness Start Highest point End Pass type
(mag) Time Alt. Az. Time Alt. Az. Time Alt. Az.
20 May 3.2 04:24:00 13° S 04:24:00 13° S 04:24:43 10° S visible
21 May 2.0 21:30:34 10° SSW 21:33:18 27° SSE 21:34:27 21° ESE visible
21 May 4.0 23:06:41 10° WSW 23:06:45 11° WSW 23:06:45 11° WSW visible
22 May 0.9 22:06:55 10° WSW 22:10:02 68° SSE 22:10:49 45° E visible
23 May 1.4 21:07:18 10° SW 21:10:18 43° SSE 21:13:20 10° E visible
23 May 1.4 22:43:50 10° W 22:46:39 63° NW 22:46:39 63° NW visible
24 May 1.0 21:44:00 10° WSW 21:47:09 87° N 21:49:54 13° ENE visible
24 May 3.3 23:20:50 10° W 23:22:06 22° WNW 23:22:06 22° WNW visible
25 May 1.3 22:20:59 10° W 22:24:07 66° N 22:25:09 37° ENE visible
26 May 1.3 21:21:07 10° W 21:24:15 71° N 21:27:25 10° E visible
26 May 2.0 22:57:56 10° WNW 23:00:14 45° WNW 23:00:14 45° WNW visible
27 May 1.2 21:58:05 10° W 22:01:14 70° N 22:03:01 23° E visible
27 May 4.0 23:34:52 10° W 23:35:13 12° W 23:35:13 12° W visible
28 May 1.4 20:58:12 10° W 21:01:21 66° N 21:04:29 10° E visible
28 May 1.0 22:35:00 10° W 22:37:58 69° SW 22:37:58 69° SW visible
29 May 1.0 21:35:08 10° WNW 21:38:18 84° N 21:40:42 16° E visible
29 May 3.6 23:12:03 10° W 23:12:53 16° W 23:12:53 16° W visible
